GFSNGP_250_rhum_240.txt.gz
RH
2 3 3 3 2 3 3 3 3 6 6 8 9 9 10 12 10 11 12 14 16 16 17 17 17 16 15 14 13 14 17 16 15 16 16 15 17 17 16 16 17 15 12 12
3 3 3 3 3 3 3 4 4 5 6 7 9 10 10 11 11 12 11 13 17 19 16 16 17 16 16 16 15 15 14 13 14 12 14 15 16 17 16 16 15 13 13 13
3 3 3 3 3 3 4 4 4 5 6 8 10 11 11 11 12 11 12 13 17 19 19 17 17 17 16 15 16 15 13 12 13 13 14 16 18 19 18 17 16 14 15 14
3 3 3 4 4 4 4 4 4 5 6 8 10 11 11 12 12 12 12 12 14 20 18 17 19 20 17 15 14 12 13 12 14 16 18 21 22 20 20 20 20 18 18 14
4 4 4 5 5 4 4 5 5 6 6 7 9 11 10 11 12 13 12 12 12 15 18 17 15 16 18 17 14 13 13 14 18 21 23 26 24 21 21 23 24 23 19 13
4 4 5 5 6 6 5 6 5 5 6 6 8 10 8 10 12 12 12 12 13 13 18 19 16 16 17 16 15 14 16 18 21 30 38 34 29 25 25 28 29 25 18 14
4 5 6 6 6 6 6 6 6 6 6 7 8 9 9 11 11 13 12 11 12 12 15 20 18 16 18 16 14 13 16 24 26 33 32 35 37 28 27 33 31 27 19 19
4 5 6 6 7 6 6 6 6 7 6 6 6 7 6 8 10 11 12 12 12 12 12 17 18 16 18 20 16 14 16 19 22 30 32 32 35 30 33 37 33 35 22 24
6 6 6 7 8 7 6 7 6 6 7 6 6 6 6 5 7 9 11 10 10 12 12 12 16 18 17 19 18 17 19 21 21 28 34 35 31 32 37 40 39 40 30 38
6 8 8 7 7 7 7 6 7 7 7 7 7 7 7 7 6 6 9 10 10 10 11 11 11 16 19 16 17 19 22 23 23 28 33 33 30 33 36 38 47 44 36 43
10 11 12 11 8 7 6 5 6 7 7 7 6 6 5 6 5 5 6 8 10 10 11 10 10 12 16 14 16 21 20 21 23 26 33 28 28 32 36 42 54 56 54 68
7 6 9 10 12 12 10 6 5 5 7 6 6 7 6 5 4 5 5 5 8 10 9 9 9 9 13 15 13 16 19 18 18 22 22 22 23 27 31 42 53 63 61 73
11 10 10 10 10 11 11 10 7 6 6 7 6 6 6 6 5 4 4 5 5 8 9 8 9 9 9 12 15 13 16 15 16 20 21 18 23 23 34 32 50 50 55 70
11 12 12 11 10 10 11 10 9 8 7 7 6 6 5 5 4 4 4 5 4 4 7 8 8 9 9 9 13 15 14 16 16 16 21 22 26 29 34 28 50 42 57 68
11 10 12 13 11 11 10 9 10 10 9 7 6 6 6 5 5 4 4 4 5 4 4 6 8 8 8 9 10 13 14 15 16 17 18 21 26 28 32 30 34 53 53 75
11 11 9 8 8 10 12 11 10 10 9 8 7 7 6 5 4 4 4 4 4 4 4 4 6 7 7 8 9 10 13 14 16 18 17 19 21 27 26 32 25 48 43 69
17 22 25 24 22 20 14 12 11 12 11 10 8 7 6 6 5 4 5 5 5 5 5 4 4 6 7 8 9 9 10 13 14 16 18 18 18 21 23 26 31 34 43 45
14 17 18 18 19 18 16 14 13 12 11 10 8 8 7 6 5 4 4 5 5 5 5 4 4 5 7 7 8 9 9 11 14 14 16 18 19 19 19 24 28 31 48 56
23 24 21 18 17 18 17 15 14 13 12 12 11 9 8 7 6 5 5 5 6 6 5 4 4 4 5 7 7 8 9 9 12 14 14 16 19 21 22 22 25 31 38 61
24 25 24 23 22 23 22 20 18 15 14 11 10 9 9 8 7 6 6 6 6 6 6 5 5 4 5 6 7 8 8 10 10 12 15 16 18 22 24 25 25 28 31 42
26 26 27 28 26 27 24 20 18 16 17 14 13 12 11 9 8 7 6 6 6 6 6 6 5 5 5 6 7 8 9 9 10 10 13 16 16 19 24 25 26 26 29 33
29 28 29 29 30 28 26 24 23 20 19 18 15 13 13 12 11 10 8 8 8 8 7 6 6 6 6 6 7 8 9 10 11 11 11 14 17 17 19 23 25 26 27 28
32 31 31 33 35 33 29 31 30 27 24 22 19 16 14 14 14 13 12 10 9 9 8 8 6 6 7 7 8 8 9 9 10 10 11 12 15 18 19 19 21 26 26 27
32 33 34 36 35 37 39 37 32 28 28 30 28 24 23 19 17 15 14 14 12 11 10 9 8 7 7 7 8 8 9 9 10 10 10 11 12 13 17 19 19 19 21 25
34 35 38 39 38 46 46 41 39 37 37 34 34 31 28 24 22 20 19 18 16 14 12 10 9 9 8 8 7 8 9 10 10 10 11 11 11 12 13 14 17 18 19 19
36 37 42 41 38 44 45 44 48 47 42 40 37 34 32 30 29 28 26 23 21 19 17 14 13 11 10 9 8 8 8 8 10 11 11 12 12 12 12 12 14 15 18 20
34 35 36 41 42 44 46 46 43 41 39 39 38 35 33 31 30 29 28 25 23 22 21 20 18 16 15 13 11 10 10 10 9 10 12 12 13 13 13 12 13 13 14 14

GFSNGP_250_rhum_243.txt.gz
RH
4 3 3 3 3 4 3 3 4 4 4 4 4 5 9 11 11 11 11 12 11 12 11 13 17 18 18 18 18 18 19 21 22 26 28 28 28 26 27 30 28 24 22 22
3 3 4 4 3 3 4 4 4 4 4 5 5 5 8 11 11 11 12 13 12 12 12 12 15 17 18 18 17 18 18 17 17 18 20 20 19 21 22 23 21 21 21 20
3 4 4 4 4 4 4 5 4 5 5 5 5 5 6 9 13 13 12 11 12 13 14 13 16 17 18 18 18 19 20 23 20 17 17 16 16 16 15 17 18 19 19 20
4 4 5 4 5 5 5 5 5 5 6 6 6 6 6 7 10 13 13 12 12 12 12 13 15 17 18 18 17 19 19 19 20 23 20 17 17 17 17 17 18 19 20 19
4 5 5 5 6 6 6 6 6 6 6 6 6 7 7 7 8 11 14 13 13 12 12 13 14 16 18 19 18 18 18 18 20 19 19 17 18 19 19 20 21 21 21 20
4 5 5 6 7 6 7 7 6 7 6 6 6 7 7 8 9 9 12 13 12 13 13 13 13 14 18 19 19 20 20 20 18 15 14 16 20 22 21 22 23 22 21 20
6 5 6 6 7 8 7 8 7 7 7 7 6 6 6 8 9 10 10 12 13 11 13 13 12 13 17 18 19 20 22 23 20 17 14 15 18 20 20 20 21 23 24 23
7 6 5 6 8 9 8 7 7 7 7 7 8 7 6 6 8 9 10 10 11 11 11 11 12 12 16 19 17 18 20 25 26 20 16 16 18 22 25 27 27 32 36 29
7 8 9 7 7 8 8 8 7 7 6 7 7 8 7 6 6 8 10 10 10 10 10 10 11 11 13 17 18 17 18 23 24 20 18 19 22 27 37 42 46 40 39 30
6 10 13 9 8 7 6 8 10 8 7 6 7 7 7 6 5 6 8 10 10 10 10 9 10 11 12 13 17 16 18 19 21 18 20 24 28 34 43 47 48 45 36 30
7 8 9 12 12 10 8 7 6 10 9 7 8 7 7 7 7 6 6 7 8 9 10 10 9 10 11 11 14 16 16 17 19 19 18 19 28 37 42 46 48 45 36 37
9 9 9 8 10 11 10 9 8 7 8 7 8 8 7 7 8 7 6 7 7 7 8 9 9 9 11 11 11 14 15 16 17 17 20 20 23 32 38 43 41 35 38 40
12 11 9 9 10 11 10 10 9 8 8 8 7 8 7 6 6 7 7 6 6 6 6 8 9 9 11 11 10 11 14 12 14 18 17 22 24 28 29 32 32 32 37 39
12 10 16 15 14 14 13 12 10 9 9 8 8 7 7 6 6 6 6 6 6 6 6 7 8 8 10 10 10 10 12 14 13 16 17 19 24 26 26 27 24 33 38 38
12 14 13 15 14 14 14 12 10 9 10 9 8 8 7 6 6 5 5 5 5 5 6 5 6 7 8 9 9 9 10 12 14 14 17 19 22 26 26 26 24 30 39 37
15 14 19 18 20 21 20 18 14 12 13 12 9 8 8 7 6 5 5 5 5 5 5 5 5 6 7 8 9 9 9 10 13 15 15 19 20 22 24 26 27 24 27 35
18 28 32 28 22 22 18 16 16 13 12 11 10 9 8 7 6 5 5 5 5 5 5 5 5 5 6 7 8 9 9 10 10 14 15 16 19 20 22 23 23 23 25 29
19 28 26 21 19 19 18 16 15 13 13 12 10 9 8 7 7 6 6 5 6 6 6 5 5 5 5 6 8 9 10 10 10 11 14 15 16 19 20 21 21 22 22 26
26 28 26 24 22 24 21 19 17 15 14 13 12 11 10 9 8 8 6 6 6 6 6 6 5 5 5 5 6 8 9 10 10 10 12 15 15 16 18 19 20 22 24 26
27 26 26 24 25 25 25 22 20 20 17 17 16 15 14 13 10 10 9 8 7 7 7 6 5 5 5 5 5 7 8 9 10 10 10 12 15 15 16 20 20 22 26 32
31 28 28 26 27 27 26 22 23 23 20 20 17 15 12 13 13 13 12 10 9 8 8 6 6 5 5 5 4 5 7 9 10 10 10 10 14 17 17 18 22 23 25 29
30 30 32 32 34 34 28 28 29 30 27 26 26 24 21 20 18 16 15 13 11 10 10 8 7 6 5 5 5 5 6 8 9 10 11 11 11 15 18 18 20 23 24 25
31 34 37 39 44 43 36 35 38 40 38 36 34 31 26 23 22 22 20 16 14 12 11 10 8 7 7 6 6 6 6 7 9 10 11 11 11 12 16 18 19 20 23 24
32 36 40 41 45 46 42 44 42 39 38 40 38 35 30 24 21 20 19 18 16 15 13 11 10 9 8 8 7 7 7 8 8 10 10 11 11 12 12 16 18 19 20 22
34 38 42 43 43 41 43 48 43 39 40 41 40 38 37 31 25 22 20 20 18 16 14 13 12 10 10 8 8 9 9 9 9 10 10 11 12 12 12 12 14 17 18 19
35 34 41 45 48 46 45 46 47 45 45 42 39 39 38 37 34 31 29 27 24 21 19 16 14 12 10 10 9 9 9 10 10 10 10 11 12 12 12 12 12 13 16 18
37 35 36 46 47 48 46 47 49 48 46 43 42 41 39 40 38 37 34 30 29 27 25 22 20 17 14 11 10 9 8 9 10 10 11 11 11 12 12 12 13 13 13 15

GFSNGP_250_rhum_249.txt.gz
RH
18 11 8 6 4 4 4 5 4 4 4 5 5 5 6 6 6 5 5 5 7 10 14 16 16 16 24 25 25 22 24 27 29 30 32 23 27 29 28 28 28 29 28 26
14 9 8 4 4 5 5 5 5 6 6 6 6 6 6 7 6 6 6 5 7 9 13 14 15 17 19 22 25 21 21 24 23 45 28 24 18 24 28 28 29 29 29 28
10 8 5 4 5 5 5 6 6 6 7 7 6 6 7 7 7 6 7 6 7 10 12 14 14 15 17 21 22 22 23 20 24 27 24 19 21 21 22 24 26 26 27 28
9 7 4 4 5 4 6 7 7 7 7 7 7 7 7 6 7 6 6 6 7 8 12 15 14 13 13 16 19 19 20 20 20 22 24 22 22 22 22 22 22 25 28 28
10 6 5 6 6 6 7 7 7 8 8 9 8 8 8 7 7 8 6 6 7 8 10 13 16 16 14 14 15 18 18 18 18 19 20 20 21 23 21 23 24 26 26 25
8 6 5 5 5 6 8 9 8 8 8 8 9 8 9 7 7 7 8 6 7 7 8 11 12 15 18 17 16 16 17 17 17 18 18 19 20 19 23 23 25 27 27 28
6 6 6 6 6 7 7 8 9 10 8 9 9 7 9 8 8 8 7 8 7 7 8 8 10 13 14 16 16 17 17 18 18 18 19 19 20 21 22 21 22 22 21 22
7 7 7 7 7 6 6 8 10 11 9 8 10 8 7 8 8 8 8 8 7 6 8 9 10 13 14 14 15 16 16 17 17 17 18 20 22 22 22 21 22 22 22 21
7 8 7 7 9 9 9 9 8 9 10 11 10 10 9 8 8 8 7 7 8 7 6 7 10 12 13 14 14 15 16 15 15 16 16 18 20 24 23 21 21 22 24 24
6 7 8 9 8 11 12 11 11 8 7 11 11 9 9 7 7 8 8 8 7 7 7 7 8 11 13 12 13 13 14 14 14 14 14 16 19 21 22 23 23 22 24 23
8 8 7 10 12 15 14 12 14 18 8 7 11 11 8 7 6 7 7 7 6 6 7 8 7 8 11 12 13 12 12 12 14 14 14 15 18 20 22 22 22 21 21 22
8 8 8 10 13 12 9 10 11 14 18 15 11 8 9 8 7 7 7 6 5 6 6 7 8 8 8 10 12 12 12 12 13 14 14 15 17 20 20 21 22 20 21 22
9 9 9 12 14 14 13 13 12 12 13 15 16 14 11 8 8 6 7 6 6 6 6 6 7 8 9 8 10 12 13 13 13 14 14 15 16 18 20 20 21 21 21 25
10 9 11 15 13 13 13 15 13 12 12 13 12 12 11 10 8 7 7 7 6 6 6 6 6 7 9 9 10 10 12 12 12 12 13 13 15 16 19 19 19 20 22 26
11 10 12 17 15 14 17 18 17 16 16 15 14 13 12 12 11 9 7 7 6 6 7 7 6 6 6 8 9 10 10 11 10 10 10 12 13 14 17 19 19 20 21 23
12 11 14 17 16 20 18 18 19 20 18 16 16 16 14 12 11 10 9 7 6 6 6 7 6 6 6 6 8 9 10 11 11 10 10 10 11 12 15 17 19 20 22 21
13 15 20 26 24 22 19 20 20 20 21 19 19 18 16 13 11 10 9 8 7 6 5 5 6 6 6 6 6 7 9 10 10 10 10 10 11 11 13 16 16 17 20 21
13 17 21 26 24 23 22 22 24 23 21 22 22 19 18 15 12 12 10 8 7 7 6 6 6 6 6 6 6 6 7 8 9 9 10 10 11 11 12 15 18 17 17 20
14 18 22 28 29 27 25 25 29 24 21 22 22 20 25 24 20 16 12 10 9 8 8 8 7 6 6 6 6 6 6 7 8 8 9 10 11 11 11 13 16 19 17 16
14 20 25 31 31 31 29 29 31 29 28 29 32 33 31 27 25 18 13 10 10 10 9 9 9 8 7 6 6 6 6 6 7 8 8 9 10 11 11 11 13 17 18 18
16 20 26 32 35 34 34 35 35 33 32 30 28 28 26 29 32 28 23 18 15 14 12 11 10 8 8 7 6 6 6 5 6 7 8 9 9 10 10 11 11 15 17 17
16 19 29 32 38 40 39 37 40 41 40 45 48 48 41 33 28 25 22 20 16 14 13 12 11 9 8 7 6 6 6 5 5 6 8 8 9 10 10 10 10 12 15 17
17 20 30 32 38 41 45 42 45 43 39 39 41 38 32 28 27 29 28 22 18 16 15 14 12 11 9 7 6 6 6 5 5 5 6 8 9 10 10 10 10 10 12 15
18 19 30 33 36 40 42 46 47 51 49 46 48 46 41 40 35 32 29 26 24 19 16 15 13 12 11 9 8 7 6 6 5 5 6 7 8 10 10 10 11 11 11 14
18 19 26 36 36 39 43 45 44 46 48 48 42 41 40 37 33 30 27 26 23 21 20 17 15 13 12 11 10 9 7 6 6 5 5 6 8 9 10 11 11 11 11 12
19 18 23 33 35 36 40 42 42 42 44 47 46 41 37 33 30 30 29 27 26 24 22 20 18 16 13 11 10 10 10 8 7 6 6 6 8 9 10 11 11 12 12 12
19 18 21 29 36 36 38 40 42 43 43 44 43 41 38 35 31 28 26 25 25 25 24 23 20 18 16 14 12 10 10 10 9 8 7 7 8 9 10 11 11 12 12 12

GFSNGP_250_rhum_255.txt.gz
RH
30 30 25 14 7 7 8 5 5 5 5 5 5 5 6 6 6 6 6 6 6 6 5 6 7 8 6 6 7 8 11 11 12 13 12 14 14 16 20 25 27 33 41 45
30 28 20 8 7 8 7 5 4 5 5 7 7 7 6 7 7 7 7 7 6 9 8 6 7 8 8 7 8 9 12 13 13 14 14 14 15 16 18 22 27 36 60 44
31 25 12 7 8 8 6 6 6 5 6 7 6 9 7 6 8 8 7 7 8 7 8 8 8 8 8 8 11 10 11 12 14 14 14 15 15 17 19 23 29 27 46 42
30 18 8 8 9 7 6 8 7 7 9 9 8 9 7 7 8 9 9 6 7 8 7 10 9 8 8 9 13 11 10 14 16 15 16 16 17 20 22 24 27 31 52 60
25 13 7 9 9 6 6 6 7 9 9 8 6 8 11 7 9 9 10 8 7 8 8 8 11 8 7 10 14 13 17 18 18 18 19 18 18 19 21 33 43 59 92 74
19 9 8 10 7 6 7 6 8 11 10 11 10 5 9 12 7 10 8 8 7 8 8 9 9 11 8 7 11 16 22 20 20 20 22 22 24 23 23 33 41 60 44 60
11 8 9 10 7 6 8 8 8 9 10 11 12 10 6 7 14 9 10 8 8 7 8 9 10 8 9 7 9 13 19 24 26 23 23 23 25 33 32 32 36 46 44 36
10 9 11 9 8 9 8 8 10 12 12 11 12 11 10 7 7 11 10 9 8 7 8 8 8 10 7 9 10 12 16 21 25 28 27 22 24 23 26 38 48 42 37 33
9 10 11 8 9 11 11 15 13 14 14 13 11 11 12 10 8 8 10 10 8 7 8 8 8 8 8 8 10 11 14 17 26 21 31 21 22 21 26 28 26 30 31 34
8 10 10 8 10 13 13 15 15 14 13 13 13 11 11 11 10 8 8 9 8 8 7 7 7 6 7 8 8 11 12 14 18 19 24 26 21 22 21 23 20 26 29 24
9 11 9 9 11 11 11 15 17 17 16 16 16 16 13 10 9 9 7 8 7 8 7 7 7 7 7 7 7 9 10 14 16 17 17 20 21 27 25 24 24 23 22 26
11 10 8 9 11 10 11 15 16 17 16 14 12 12 13 13 12 10 8 8 8 7 8 7 7 6 7 7 7 8 8 11 15 16 16 16 17 20 24 28 29 30 30 29
12 9 9 11 12 11 14 19 17 15 13 11 12 14 16 12 11 10 9 8 8 8 8 7 7 7 7 7 8 8 8 9 11 14 18 20 22 20 20 22 23 24 26 28
11 10 11 12 14 14 20 21 19 19 20 24 25 21 20 18 13 10 9 9 8 9 8 8 7 7 7 7 8 8 9 10 10 11 15 19 20 22 26 28 24 24 25 26
9 10 11 13 14 15 21 23 24 24 29 28 24 22 18 17 12 9 10 10 8 9 9 8 8 8 8 8 8 8 8 9 10 11 11 13 17 21 26 28 29 25 23 21
9 10 12 15 16 16 23 29 29 27 24 22 26 27 23 18 16 16 13 12 9 8 8 8 9 10 10 9 8 8 9 9 11 13 13 13 13 14 15 16 18 18 19 19
10 11 14 16 18 16 23 33 31 27 26 25 28 26 29 24 20 18 16 12 10 9 8 8 8 10 10 9 8 8 8 9 9 10 12 13 14 14 13 13 13 12 13 14
10 12 15 16 18 18 26 34 37 37 38 35 30 29 26 26 23 18 18 15 15 13 10 9 8 8 9 10 9 8 8 8 10 10 9 10 11 10 11 11 12 13 13 14
11 14 16 18 19 19 25 34 37 35 34 38 42 38 30 27 28 25 24 23 23 20 13 11 10 8 8 8 9 9 8 7 8 10 10 9 9 9 10 10 11 12 13 14
12 14 16 18 19 20 22 33 39 38 34 34 35 47 43 37 33 31 24 18 17 17 17 16 13 11 10 8 7 7 8 7 7 6 9 10 10 9 9 9 10 11 12 13
13 14 15 18 19 20 20 30 36 40 42 41 36 30 33 36 38 39 36 30 26 23 20 18 15 13 12 10 9 8 6 6 6 6 6 6 9 9 9 9 10 10 11 11
13 13 15 18 19 21 23 29 34 37 40 41 40 37 35 35 36 34 31 31 30 28 23 20 19 17 14 11 10 9 8 7 6 6 6 6 6 7 9 9 10 10 10 10
13 13 15 18 19 21 22 24 34 37 38 37 35 36 37 36 39 36 33 34 30 26 23 22 20 18 16 13 11 9 8 7 7 6 6 5 5 6 7 8 9 10 10 10
13 14 15 17 19 21 21 24 31 38 38 40 41 36 32 30 28 27 27 30 29 26 23 22 21 20 17 15 13 11 9 8 7 6 6 6 5 5 6 7 8 9 9 10
12 14 15 17 19 20 21 23 28 37 37 36 38 38 37 36 36 33 32 31 29 27 25 22 20 19 18 17 14 12 10 9 7 7 6 6 6 5 5 6 7 8 9 10
12 14 15 16 19 19 20 21 25 32 39 37 35 34 32 31 29 29 32 31 31 29 25 22 21 20 19 16 15 13 12 11 9 8 7 6 6 6 5 6 7 8 9 10
12 13 14 15 17 19 20 20 22 26 36 38 34 32 33 30 29 30 32 32 31 30 28 24 21 21 19 19 17 14 12 11 11 10 8 7 7 6 6 6 7 8 10 10